Weather Roundup
Issued by NWS Corpus Christi, TX

Home | Current Version | Previous Version | Text Only | Print | Product List | Glossary On
Versions: 1 2 3 4 5 6 7 8 9 10 11 12 13 14 15 16 17 18 19 20 21 22 23 24 25 26 27 28 29 30 31 32 33 34 35 36 37 38 39 40 41 42 43 44 45 46 47 48 49 50
000
ASUS44 KCRP 041510
HRRCRP

SOUTH TEXAS REGIONAL WEATHER ROUNDUP
NATIONAL WEATHER SERVICE CORPUS CHRISTI TX
1000 AM CDT FRI SEP 04 2015


TXZ229>244-041600-
...CORPUS CHRISTI AREA OBSERVATIONS...

CITY           SKY/WX    TMP DP  RH WIND       PRES   REMARKS
CORPUS CHRISTI MOSUNNY   87  75  67 S14       29.92S HX  96
NAS CORPUS CHR MOSUNNY   86  76  71 S10       29.92R HX  96
ROCKPORT       MOSUNNY   87  75  67 S8        29.92S HX  96
KINGSVILLE NAS MOSUNNY   89  79  72 S13       29.92R HX 104
ALICE          MOSUNNY   84  77  79 SE10      29.92R HX  94
FALFURRIAS     MOSUNNY   87  77  72 SE9G17    29.91R HX  98
$$

...VICTORIA AREA OBSERVATIONS...

CITY           SKY/WX    TMP DP  RH WIND       PRES   REMARKS
VICTORIA       MOSUNNY   84  79  85 SE5       29.94S HX  96
BEEVILLE       FAIR      85  79  81 SE8       29.94S HX  97
PLEASANTON     CLOUDY    84  71  64 SE9       29.95R
SAN ANTONIO    PTSUNNY   82  71  69 S8        29.96R
$$

...LAREDO AREA OBSERVATIONS...

CITY           SKY/WX    TMP DP  RH WIND       PRES   REMARKS
LAREDO         MOSUNNY   85  74  69 SE12      29.92R HX  92
COTULLA        PTSUNNY   84  73  69 SE13      29.92S HX  90
DEL RIO        SUNNY     82  72  71 SE12      29.92R
MCALLEN        PTSUNNY   86  78  77 SE10      29.90S HX  98
HEBBRONVILLE   NOT AVBL
$$

...OTHER TEXAS OBSERVATIONS...

CITY           SKY/WX    TMP DP  RH WIND       PRES   REMARKS
BROWNSVILLE    RAIN      82  76  81 SE9       29.91R
HOUSTON        PTSUNNY   85  76  74 CALM      29.96S HX  94
COL. STATION   PTSUNNY   82  74  76 S6        29.97R
AUSTIN         PTSUNNY   82  73  74 VRB7      29.96R
WACO           SUNNY     83  72  69 S8        29.96S
FORT WORTH     MOSUNNY   84  72  67 S6        29.96S
WICHITA FALLS  SUNNY     84  69  60 S10       29.96R
LUBBOCK        MOSUNNY   79  56  45 S12       30.02R
EL PASO        CLOUDY    79  57  46 S5        30.03R
$$

...MARINE OBSERVATIONS...

STATION/POSITION TIME  SKY/WX   TEMP    WIND        PRES    VSBY  WAVE   SWELL
                                AIR SEA DIR/SP/G                  HT/PER HT/PER
                 (UTC)          (F)     (DEG/KT/KT) (MB)    (MI)  (FT/S) (FT/S)
PORT ARANSAS     1500            85 85  160/ 13/ 14 1014.2R
BUOY 90 E PORT A 1450            85 85  170/  6/ 10 1014.3R         3/ 7   3/ 7
BUOY 45 SE BAFFI 1450            84 85  160/ 10/ 14 1013.2R         3/ 5   2/ 5
BUOY 200 E PT IS 1450            86 85  150/ 12/ 14 1014.8R         2/ 6   2/ 6
BUOY 15 E GALVES 1450            84 85  180/  6/  8 1014.6R         2/ 6   2/ 6
$$


USA.gov is the U.S. government's official web portal to all federal, state and local government web resources and services.